Regional Weather Roundup
Issued by NWS

Home | Current Version | Previous Version | Graphics & Text | Print | Product List | Glossary On
Versions: 1 2 3 4 5 6 7 8 9 10 11 12 13 14 15 16 17 18 19 20 21 22 23 24 25 26 27 28 29 30 31 32 33 34 35 36 37 38 39 40 41 42 43 44 45 46 47 48 49 50
000
ASUS43 KLMK 231210
RWRKY
NATIONAL WEATHER SERVICE LOUISVILLE KY
700 AM EST SUN NOV 23 2014

NOTE "FAIR" INDICATES FEW OR NO CLOUDS BELOW 12,000 FEET
WITH NO SIGNIFICANT WEATHER AND/OR OBSTRUCTIONS TO VISIBILITY.

KYZ001>023-026-027-061>063-070>075-231300-
WESTERN AND SOUTH CENTRAL KENTUCKY

CITY           SKY/WX    TMP DP  RH WIND       PRES   REMARKS
PADUCAH        CLOUDY    56  47  71 SE8       29.82F
HENDERSON      CLOUDY    52  37  58 SE10G16   29.88F
OWENSBORO      CLOUDY    55  40  57 SE12      29.92F
HOPKINSVILLE   CLOUDY    52  45  77 E6        29.89F
BOWLING GREEN  CLOUDY    52  40  63 E3        29.94F
GLASGOW        LGT RAIN  52  43  71 E6        29.96F
$$

KYZ024-025-028>034-038-045-046-053-231300-
NORTH CENTRAL KENTUCKY

CITY           SKY/WX    TMP DP  RH WIND       PRES   REMARKS
LOUISVILLE/SDF MOCLDY    53  40  61 SE8       29.97R
LOUISVILLE/LOU CLOUDY    54  40  59 SE6       29.98R
FORT KNOX      CLOUDY    52  39  61 E6        29.95F
$$

KYZ035>037-039>044-047>052-055>060-089>105-231300-
NORTHEAST KENTUCKY

CITY           SKY/WX    TMP DP  RH WIND       PRES   REMARKS
LEXINGTON      MOCLDY    49  37  63 SE9       30.01S
COVINGTON      CLOUDY    46  37  71 S7        29.98F
FRANKFORT      CLOUDY    51  38  60 SE9       29.99R
$$

KYZ054-064>069-076>088-106>120-231300-
SOUTHEAST KENTUCKY

CITY           SKY/WX    TMP DP  RH WIND       PRES   REMARKS
JACKSON        CLOUDY    50  32  50 E6        30.05S
LONDON         PTCLDY    43  33  68 CALM      30.04S
SOMERSET       CLOUDY    46  37  71 CALM      30.02F
MIDDLESBORO    CLOUDY    43  35  71 S3        30.08F
MONTICELLO     CLOUDY    57  43  59 E7        30.02S
$$




USA.gov is the U.S. government's official web portal to all federal, state and local government web resources and services.